Location: Fredericton
(45.9636°N, 66.6431°W)
Time: 21:21:31
(UTC-04:00)

ISS - Pass Details

Date: 01 November 2021
Orbit: 417 x 423 km, 51.6° (Epoch: 30 November)

Event Time Altitude Azimuth Distance (km) Brightness Sun altitude
Exits shadow 06:47:45 21° 319° (NW) 1,018 -2.2 -14.3°
Maximum altitude 06:49:19 31° 6° (N) 769 -2.5 -14.0°
Drops below altitude 10° 06:52:22 10° 71° (ENE) 1,501 0.1 -13.5°
Sets 06:54:37 0° 82° (E) 2,363 1.7 -13.1°
